Weather History for Poplar Bluff, MO

Change the Weather History Date:

Monday, December 2, 2013

  Actual Average Record
Temperature  
Mean Temperature 48 °F -  
Max Temperature 59 °F 51 °F 73 °F (1950)
Min Temperature 37 °F 30 °F 9 °F (1929)
Degree Days  
Heating Degree Days 17    
Moisture  
Dew Point 40 °F    
Average Humidity 81    
Maximum Humidity 87    
Minimum Humidity 67    
Precipitation  
Precipitation 0.00 in - - ()
Sea Level Pressure  
Sea Level Pressure 29.79 in    
Wind  
Wind Speed 1 mph (ESE)    
Max Wind Speed 7 mph    
Max Gust Speed -    
Visibility 3 miles    
Events Fog , Snow    
Averages and records for this station are not official NWS values.
T = Trace of Precipitation, MM = Missing Value Source: NWS Daily Summary

Daily Weather History Graph

Daily Weather History Graph

Search for Another Location

Airport:

Trip Planner

Search our weather history database for the weather conditions in past years. The results will help you decide how hot, cold, wet, or windy it might be!

Date:

Astronomy

Dec. 02, 2013 Rise Set
Actual Time 6:56 AM CST 4:45 PM CST
Civil Twilight 6:27 AM CST 5:13 PM CST
Nautical Twilight 5:55 AM CST 5:45 PM CST
Astronomical Twilight 5:24 AM CST 6:16 PM CST
Moon 6:22 AM CST (12/2) 4:47 PM CST (12/2)
Length of Visible Light 10h 45m
Length of Day
9h 48m
Waning Crescent, 0% of the Moon is Illuminated
Dec 2
Waning Crescent
Dec 2
New
Dec 9
First Quarter
Dec 17
Full
Dec 25
Last Quarter

Hourly Weather History & Observations

Time (CST) Temp. Windchill Dew Point Humidity Pressure Visibility Wind Dir Wind Speed Gust Speed Precip Events Conditions
12:40 AM 41.0 °F - 36.0 °F 82% 29.89 in 1.8 mi Calm Calm - N/A   Haze
12:53 AM 41.0 °F - 37.0 °F 86% 29.89 in 3.0 mi Calm Calm - N/A   Overcast
1:53 AM 42.1 °F 40.2 °F 37.0 °F 82% 29.88 in 4.0 mi North 3.5 mph - N/A   Haze
2:53 AM 44.1 °F 41.5 °F 39.0 °F 82% 29.88 in 4.0 mi NE 4.6 mph - N/A   Haze
3:53 AM 42.1 °F 39.2 °F 37.0 °F 82% 29.86 in 3.0 mi NE 4.6 mph - N/A   Haze
4:07 AM 41.0 °F - 37.0 °F 86% 29.85 in 2.5 mi Calm Calm - N/A   Clear
4:21 AM 37.9 °F - 34.0 °F 86% 29.85 in 1.5 mi Calm Calm - N/A   Clear
4:25 AM 37.9 °F 35.5 °F 34.0 °F 86% 29.85 in 0.8 mi North 3.5 mph - N/A   Mist
4:37 AM 37.9 °F 35.5 °F 34.0 °F 86% 29.84 in 0.2 mi North 3.5 mph - N/A Fog Fog
4:53 AM 37.9 °F 35.5 °F 34.0 °F 86% 29.85 in 0.2 mi NE 3.5 mph - 0.00 in Fog , Snow Light Snow
5:07 AM 39.0 °F - 35.1 °F 86% 29.83 in 0.5 mi Calm Calm - 0.00 in Fog Fog
5:27 AM 37.0 °F - 33.1 °F 86% 29.83 in 0.2 mi Calm Calm - 0.00 in Fog , Snow Light Snow
5:49 AM 37.4 °F - 33.8 °F 87% 29.84 in 0.5 mi Calm Calm - 0.00 in Fog Fog
5:53 AM 37.0 °F - 33.1 °F 86% 29.85 in 0.5 mi Calm Calm - 0.00 in Fog Fog
6:05 AM 39.0 °F - 35.1 °F 86% 29.84 in 0.8 mi Calm Calm - N/A   Overcast
6:27 AM 39.9 °F - 36.0 °F 86% 29.83 in 1.5 mi Calm Calm - N/A   Overcast
6:35 AM 39.9 °F - 36.0 °F 86% 29.83 in 3.0 mi Calm Calm - N/A   Overcast
6:53 AM 39.9 °F 37.8 °F 36.0 °F 86% 29.84 in 3.0 mi North 3.5 mph - N/A   Overcast
7:02 AM 41.0 °F 39.0 °F 36.0 °F 82% 29.83 in 2.0 mi NNW 3.5 mph - N/A   Haze
7:10 AM 41.0 °F 39.0 °F 37.0 °F 86% 29.83 in 2.5 mi NW 3.5 mph - N/A   Overcast
7:18 AM 42.1 °F - 37.0 °F 82% 29.83 in 2.5 mi Calm Calm - N/A   Haze
7:53 AM 43.0 °F - 39.0 °F 86% 29.84 in 2.5 mi Calm Calm - N/A   Overcast
8:12 AM 44.1 °F - 39.9 °F 85% 29.83 in 2.5 mi Calm Calm - N/A   Overcast
8:40 AM 45.0 °F - 39.9 °F 82% 29.83 in 3.0 mi Calm Calm - N/A   Haze
8:53 AM 45.0 °F - 39.9 °F 82% 29.84 in 3.0 mi Calm Calm - N/A   Haze
9:53 AM 48.9 °F - 42.1 °F 77% 29.82 in 6.0 mi Calm Calm - N/A   Haze
10:33 AM 51.1 °F - 43.0 °F 74% 29.80 in 7.0 mi SE 3.5 mph - N/A   Mostly Cloudy
10:42 AM 52.0 °F - 44.1 °F 74% 29.80 in 8.0 mi SSE 3.5 mph - N/A   Mostly Cloudy
10:53 AM 53.1 °F - 44.1 °F 71% 29.81 in 8.0 mi Calm Calm - N/A   Overcast
11:32 AM 54.0 °F - 45.0 °F 72% 29.78 in 8.0 mi Calm Calm - N/A   Overcast
11:53 AM 55.0 °F - 46.0 °F 72% 29.78 in 8.0 mi Calm Calm - N/A   Overcast
12:17 PM 57.0 °F - 46.9 °F 69% 29.75 in 8.0 mi SE 6.9 mph - N/A   Scattered Clouds
12:53 PM 57.9 °F - 46.9 °F 67% 29.74 in 9.0 mi SSE 4.6 mph - N/A   Partly Cloudy
1:18 PM 57.9 °F - 46.9 °F 67% 29.73 in 7.0 mi South 3.5 mph - N/A   Mostly Cloudy
1:53 PM 59.0 °F - 48.0 °F 67% 29.72 in 4.0 mi SSW 5.8 mph - N/A   Haze
2:53 PM 59.0 °F - 48.0 °F 67% 29.70 in 4.0 mi SSW 6.9 mph - N/A   Haze
3:29 PM 59.0 °F - 48.0 °F 67% 29.71 in 3.0 mi South 3.5 mph - N/A   Haze
3:53 PM 57.9 °F - 46.9 °F 67% 29.72 in 3.0 mi SSW 5.8 mph - N/A   Haze
4:53 PM 55.0 °F - 46.9 °F 74% 29.71 in 5.0 mi SSE 3.5 mph - N/A   Haze
5:53 PM 50.0 °F - 44.1 °F 80% 29.73 in 6.0 mi Calm Calm - N/A   Haze
6:44 PM 48.0 °F - 43.0 °F 83% 29.72 in 1.2 mi Calm Calm - N/A   Haze
6:50 PM 48.2 °F - 42.8 °F 82% 29.72 in 0.2 mi Calm Calm - N/A   Haze
6:53 PM 48.0 °F - 43.0 °F 83% 29.74 in 0.2 mi Calm Calm - N/A   Haze
7:00 PM 46.9 °F - 42.1 °F 83% 29.73 in 0.5 mi Calm Calm - N/A   Haze
7:18 PM 46.0 °F - 42.1 °F 86% 29.73 in 0.2 mi Calm Calm - N/A Fog Fog
7:35 PM 46.0 °F - 41.0 °F 83% 29.73 in 0.2 mi Calm Calm - N/A   Haze
7:44 PM 46.0 °F - 41.0 °F 83% 29.74 in 0.2 mi Calm Calm - N/A   Haze
7:53 PM 45.0 °F - 41.0 °F 86% 29.75 in 0.2 mi Calm Calm - N/A Fog Fog
8:08 PM 44.1 °F - 39.9 °F 85% 29.75 in 0.5 mi Calm Calm - N/A Fog Fog
8:16 PM 44.1 °F - 39.9 °F 85% 29.74 in 0.2 mi Calm Calm - N/A Fog Fog
8:25 PM 44.1 °F - 39.9 °F 85% 29.75 in 0.2 mi Calm Calm - N/A Fog Fog
8:33 PM 44.1 °F - 39.9 °F 85% 29.75 in 0.2 mi Calm Calm - N/A Fog Fog
8:53 PM 43.0 °F - 39.0 °F 86% 29.76 in 0.2 mi Calm Calm - N/A Fog Fog
9:53 PM 43.0 °F - 39.0 °F 86% 29.75 in 0.2 mi Calm Calm - N/A Fog Fog
10:53 PM 42.1 °F - 37.9 °F 85% 29.74 in 0.2 mi Calm Calm - N/A Fog Fog
11:53 PM 42.1 °F - 37.9 °F 85% 29.71 in 0.2 mi Calm Calm - N/A Fog Fog